Location: Linz
(48.3300°N, 14.3000°E)
Time: 10:15:51
(UTC+01:00)

Envisat - Pass Details

Date: 18 November 2017
Orbit: 764 x 766 km, 98.2° (Epoch: 19 November)

Event Time Altitude Azimuth Distance (km) Brightness Sun altitude
Exits shadow 20:26:56 11° 331° (NNW) 2,248 5.8 -40.5°
Drops below altitude 10° 20:27:04 10° 332° (NNW) 2,295 5.9 -40.5°
Sets 20:29:34 0° 340° (NNW) 3,243 6.7 -40.9°
